CW5022 Weather Reports


time (UTC)temp
F
wind
direction
speed
knots
gust
knots
rain 1hr
in
rain 24hr
in
rain mn
in
humidity
%
barometer
mb
20260503211703 81 283 1.7 1.7 0.00 0.00 0.00 42 1009.9
20260503211204 81 153 0.0 4.3 0.00 0.00 0.00 41 1009.9
20260503210204 81 104 0.0 1.7 0.00 0.00 0.00 42 1010.1
20260503205704 81 93 0.0 4.3 0.00 0.00 0.00 39 1010.2
20260503204704 81 311 0.9 4.3 0.00 0.00 0.00 39 1010.3
20260503204203 81 115 0.0 0.9 0.00 0.00 0.00 40 1010.4
20260503203703 81 109 1.7 5.2 0.00 0.00 0.00 40 1010.5
20260503203204 81 7 0.9 5.2 0.00 0.00 0.00 42 1010.6
20260503202704 81 113 0.9 4.3 0.00 0.00 0.00 41 1010.7
20260503201704 81 111 0.9 4.3 0.00 0.00 0.00 41 1010.7
20260503201204 81 32 0.9 5.2 0.00 0.00 0.00 41 1010.8
20260503200703 81 288 5.2 5.2 0.00 0.00 0.00 40 1010.9
20260503200204 81 351 0.9 5.2 0.00 0.00 0.00 44 1010.9
20260503195704 80 280 0.9 4.3 0.00 0.00 0.00 43 1011.0
20260503194704 80 45 1.7 4.3 0.00 0.00 0.00 44 1011.2
20260503194205 79 92 0.9 4.3 0.00 0.00 0.00 44 1011.3
20260503193704 79 113 2.6 5.2 0.00 0.00 0.00 44 1011.4
20260503193204 79 100 0.9 4.3 0.00 0.00 0.00 42 1011.4
20260503192704 80 223 0.0 1.7 0.00 0.00 0.00 42 1011.5
20260503192204 79 86 0.0 1.7 0.00 0.00 0.00 46 1011.6
20260503191704 78 271 0.9 4.3 0.00 0.00 0.00 43 1011.7
20260503191203 77 238 0.0 1.7 0.00 0.00 0.00 46 1011.7
20260503190704 78 278 2.6 4.3 0.00 0.00 0.00 43 1011.8
20260503185703 77 293 2.6 5.2 0.00 0.00 0.00 45 1011.8
20260503185204 78 292 2.6 5.2 0.00 0.00 0.00 44 1011.9
20260503184704 78 341 0.9 4.3 0.00 0.00 0.00 45 1012.0
20260503183704 77 299 0.9 4.3 0.00 0.00 0.00 47 1012.2
20260503183204 77 101 0.9 4.3 0.00 0.00 0.00 45 1012.1
20260503182704 78 139 1.7 4.3 0.00 0.00 0.00 46 1012.2
20260503182204 77 293 0.9 5.2 0.00 0.00 0.00 47 1012.2
20260503181704 77 4 1.7 4.3 0.00 0.00 0.00 47 1012.2
20260503181205 76 49 1.7 4.3 0.00 0.00 0.00 49 1012.3
20260503180704 76 225 1.7 4.3 0.00 0.00 0.00 49 1012.3
20260503175204 76 328 0.9 5.2 0.00 0.00 0.00 51 1012.4
20260503174704 76 293 0.9 1.7 0.00 0.00 0.00 51 1012.4
20260503174204 75 112 0.0 0.9 0.00 0.00 0.00 55 1012.4
20260503173704 74 145 0.0 5.2 0.00 0.00 0.00 52 1012.5
20260503173204 73 331 0.9 1.7 0.00 0.00 0.00 56 1012.6
20260503172703 73 334 0.0 4.3 0.00 0.00 0.00 56 1012.6
20260503172203 72 333 1.7 4.3 0.00 0.00 0.00 55 1012.6
20260503171203 71 329 0.9 4.3 0.00 0.00 0.00 57 1012.7
20260503170204 71 105 1.7 4.3 0.00 0.00 0.00 59 1012.9
20260503160205 67 354 0.0 1.7 0.00 0.00 0.00 64 1013.1
20260503150704 58 26 0.0 0.9 0.00 0.00 0.00 81 1013.2
20260503150204 57 25 0.0 1.7 0.00 0.00 0.00 82 1013.2
20260503140204 52 355 0.0 0.0 0.00 0.00 0.00 91 1013.0
20260503131204 50 355 0.0 0.0 0.00 0.00 0.00 90 1012.8
20260503130705 50 355 0.0 0.0 0.00 0.00 0.00 90 1012.8
20260503130204 50 355 0.0 0.0 0.00 0.00 0.00 90 1012.9
20260503120204 51 355 0.0 0.0 0.00 0.00 0.00 88 1012.9
20260503110704 52 355 0.0 0.0 0.00 0.00 0.00 87 1013.0
20260503110204 52 355 0.0 0.0 0.00 0.00 0.00 87 1013.1
20260503100204 53 355 0.0 0.0 0.00 0.00 0.00 85 1013.1
20260503090204 54 355 0.0 0.0 0.00 0.00 0.00 81 1013.2
20260503081203 55 355 0.0 0.0 0.00 0.00 0.00 78 1013.1
20260503080705 55 355 0.0 0.0 0.00 0.00 0.00 77 1013.1
20260503072704 57 355 0.0 0.0 0.00 0.00 0.00 75 1013.0
20260503071204 57 355 0.0 0.0 0.00 0.00 0.00 75 1013.0
20260503070204 58 355 0.0 0.0 0.00 0.00 0.00 74 1012.9
20260503060204 59 355 0.0 0.0 0.00 0.00 0.00 69 1012.9
20260503054204 60 355 0.0 0.0 0.00 0.00 0.00 69 1012.8
20260503053704 60 355 0.0 0.0 0.00 0.00 0.00 69 1012.8
20260503053204 60 355 0.0 0.0 0.00 0.00 0.00 69 1012.9
20260503052703 61 355 0.0 0.0 0.00 0.00 0.00 68 1012.8
20260503052204 61 355 0.0 0.0 0.00 0.00 0.00 69 1012.8
20260503051704 61 355 0.0 0.0 0.00 0.00 0.00 66 1012.8
20260503051203 61 355 0.0 0.0 0.00 0.00 0.00 62 1012.8
20260503050204 62 355 0.0 0.0 0.00 0.00 0.00 63 1012.8
20260503045704 62 355 0.0 0.0 0.00 0.00 0.00 62 1012.8
20260503045203 63 355 0.0 0.0 0.00 0.00 0.00 61 1012.7
20260503044704 63 355 0.0 0.0 0.00 0.00 0.00 59 1012.7
20260503044203 63 355 0.0 0.0 0.00 0.00 0.00 58 1012.7
20260503043704 64 355 0.0 0.0 0.00 0.00 0.00 57 1012.6
20260503043204 64 355 0.0 0.0 0.00 0.00 0.00 58 1012.6
20260503042704 64 355 0.0 0.0 0.00 0.00 0.00 57 1012.5
20260503042203 65 355 0.0 0.0 0.00 0.00 0.00 55 1012.5
20260503041703 65 355 0.0 0.9 0.00 0.00 0.00 54 1012.4
20260503040704 65 355 0.0 0.0 0.00 0.00 0.00 54 1012.3
20260503040204 66 355 0.0 0.0 0.00 0.00 0.00 54 1012.3
20260503035703 66 355 0.0 0.9 0.00 0.00 0.00 54 1012.2
20260503035203 66 355 0.0 0.9 0.00 0.00 0.00 54 1012.1
20260503034204 67 109 0.9 1.7 0.00 0.00 0.00 51 1012.0
20260503033704 67 345 0.0 1.7 0.00 0.00 0.00 52 1011.8
20260503032204 68 344 0.0 1.7 0.00 0.00 0.00 50 1011.7
20260503031204 69 319 0.0 1.7 0.00 0.00 0.00 50 1011.6
20260503030704 69 276 0.9 5.2 0.00 0.00 0.00 49 1011.6
20260503030203 69 161 0.9 1.7 0.00 0.00 0.00 50 1011.6
20260503025704 69 343 0.0 1.7 0.00 0.00 0.00 50 1011.5
20260503025203 70 344 0.9 4.3 0.00 0.00 0.00 50 1011.5
20260503024704 70 330 3.5 5.2 0.00 0.00 0.00 49 1011.4
20260503024203 70 333 0.0 1.7 0.00 0.00 0.00 51 1011.4
20260503023204 71 329 0.9 1.7 0.00 0.00 0.00 52 1011.4
20260503022704 71 307 0.9 1.7 0.00 0.00 0.00 52 1011.4
20260503022204 72 87 0.9 1.7 0.00 0.00 0.00 54 1011.4
20260503021704 72 302 0.0 1.7 0.00 0.00 0.00 53 1011.3
20260503021203 72 296 1.7 4.3 0.00 0.00 0.00 52 1011.3
20260503020704 72 37 0.0 4.3 0.00 0.00 0.00 53 1011.3
20260503020204 73 238 0.9 1.7 0.00 0.00 0.00 52 1011.3
20260503015704 73 157 0.9 4.3 0.00 0.00 0.00 52 1011.3
20260503015204 73 349 2.6 5.2 0.00 0.00 0.00 52 1011.3
20260503014704 73 94 0.9 1.7 0.00 0.00 0.00 52 1011.3
20260503014204 73 280 0.0 5.2 0.00 0.00 0.00 52 1011.3
20260503013704 73 81 0.9 4.3 0.00 0.00 0.00 52 1011.3
20260503013204 73 290 4.3 5.2 0.00 0.00 0.00 52 1011.3
20260503012704 73 284 1.7 4.3 0.00 0.00 0.00 52 1011.3
20260503012204 74 52 0.0 4.3 0.00 0.00 0.00 52 1011.4
20260503011704 74 51 1.7 7.0 0.00 0.00 0.00 53 1011.3
20260503011204 74 31 1.7 4.3 0.00 0.00 0.00 53 1011.3
20260503010704 74 11 0.0 1.7 0.00 0.00 0.00 53 1011.3
20260503010204 74 321 4.3 8.7 0.00 0.00 0.00 52 1011.3
20260503005704 74 177 0.9 4.3 0.00 0.00 0.00 52 1011.4
20260503005203 74 336 3.5 8.7 0.00 0.00 0.00 52 1011.4
20260503004704 75 339 0.9 5.2 0.00 0.00 0.00 52 1011.5
20260503004205 75 301 3.5 7.0 0.00 0.00 0.00 52 1011.5
20260503003703 75 289 1.7 4.3 0.00 0.00 0.00 53 1011.5
20260503002704 75 17 0.0 4.3 0.00 0.00 0.00 52 1011.5
20260503002204 75 317 0.9 4.3 0.00 0.00 0.00 52 1011.6
20260503001204 74 29 0.0 4.3 0.00 0.00 0.00 52 1011.6
20260503000205 75 300 0.9 4.3 0.00 0.00 0.00 52 1011.6
20260502235704 74 96 5.2 7.0 0.00 0.00 0.00 51 1011.6
20260502234703 74 28 4.3 7.0 0.00 0.00 0.00 53 1011.8
20260502234204 74 98 5.2 8.7 0.00 0.00 0.00 53 1011.8
20260502233703 74 23 0.9 4.3 0.00 0.00 0.00 53 1011.8
20260502233204 74 296 4.3 5.2 0.00 0.00 0.00 52 1012.0
20260502232704 74 294 6.1 7.0 0.00 0.00 0.00 52 1012.0
20260502232204 74 292 1.7 7.0 0.00 0.00 0.00 52 1012.1
20260502230704 75 117 2.6 6.1 0.00 0.00 0.00 50 1012.4
20260502230204 75 9 4.3 7.0 0.00 0.00 0.00 49 1012.5
20260502225204 75 279 0.9 5.2 0.00 0.00 0.00 50 1012.6
20260502224704 75 302 1.7 4.3 0.00 0.00 0.00 49 1012.6
20260502224205 74 4 3.5 5.2 0.00 0.00 0.00 49 1012.7
20260502223704 74 339 4.3 5.2 0.00 0.00 0.00 49 1012.8
20260502223204 74 297 6.1 8.7 0.00 0.00 0.00 48 1012.8
20260502222204 74 297 2.6 5.2 0.00 0.00 0.00 50 1013.0
20260502221703 74 295 2.6 4.3 0.00 0.00 0.00 51 1013.1
20260502221204 74 91 2.6 8.7 0.00 0.00 0.00 50 1013.1
20260502215704 74 118 3.5 7.0 0.00 0.00 0.00 53 1013.2
20260502214204 73 338 0.9 4.3 0.00 0.00 0.00 58 1013.4
20260502213705 73 270 0.9 4.3 0.00 0.00 0.00 58 1013.5
20260502213206 73 303 1.7 4.3 0.00 0.00 0.00 58 1013.6
20260502212704 73 332 1.7 4.3 0.00 0.00 0.00 59 1013.5
20260502212204 72 65 1.7 6.1 0.00 0.00 0.00 61 1013.6